This is the latest recevied weather packets stored in our database for station/object MB7UUE. If no packets are shown the sender has not sent any weather packets the latest 10 day(s).
| Time | Temp. | Humidity | Pressure | Rain* | Wind** | Luminosity | Snow |
|---|---|---|---|---|---|---|---|
| 1788537585 | 20.56° C | 50% | 1014.3 hPa | 0 mm | - | - | - |
| 1788537112 | 20.56° C | 50% | 1014.3 hPa | 0 mm | - | - | - |
| 1788536446 | 21.11° C | 53% | 1014 hPa | 0 mm | - | - | - |
| 1788535973 | 21.11° C | 53% | 1014 hPa | 0 mm | - | - | - |
| 1788535304 | 21.11° C | 53% | 1014 hPa | 0 mm | - | - | - |
| 1788534834 | 21.11° C | 53% | 1013.9 hPa | 0 mm | - | - | - |
| 1788534166 | 21.11° C | 55% | 1013.8 hPa | 0 mm | - | - | - |
| 1788533693 | 21.11° C | 54% | 1013.8 hPa | 0 mm | - | - | - |
| 1788533025 | 21.11° C | 54% | 1014 hPa | 0 mm | - | - | - |
| 1788532552 | 20.56° C | 54% | 1013.7 hPa | 0 mm | - | - | - |
| 1788531886 | 20.56° C | 54% | 1013.8 hPa | 0 mm | - | - | - |
| 1788531414 | 20.56° C | 54% | 1013.6 hPa | 0 mm | - | - | - |
| 1788530745 | 20.56° C | 52% | 1013.6 hPa | 0 mm | - | - | - |
| 1788530273 | 20.56° C | 51% | 1013.7 hPa | 0 mm | - | - | - |
| 1788529606 | 21.11° C | 51% | 1013.6 hPa | 0 mm | - | - | - |
| 1788529134 | 21.11° C | 53% | 1013.4 hPa | 0 mm | - | - | - |
| 1788528465 | 21.11° C | 56% | 1013.7 hPa | 0 mm | - | - | - |
| 1788527993 | 21.11° C | 56% | 1013.5 hPa | 0 mm | - | - | - |
| 1788527325 | 21.11° C | 58% | 1013.3 hPa | 0 mm | - | - | - |
| 1788526854 | 21.11° C | 58% | 1013 hPa | 0 mm | - | - | - |
| 1788526186 | 21.11° C | 59% | 1012.9 hPa | 0 mm | - | - | - |
| 1788525713 | 21.11° C | 64% | 1012.9 hPa | 0 mm | - | - | - |
| 1788525045 | 21.11° C | 64% | 1013 hPa | 0 mm | - | - | - |
| 1788524573 | 21.11° C | 64% | 1012.8 hPa | 0 mm | - | - | - |
| 1788523905 | 21.11° C | 65% | 1012.7 hPa | 0 mm | - | - | - |
* Rain latest hour (hover to see other rain measurements)
** Current wind speed in m/s (hover to see current wind gust speed)